Easton, MD

12:24 PM EDT on September 25, 2016 (GMT -0400)
Easton / Newnam

Weather History for KESN - November, 2011

Change the Weather History Date:

Friday, November 25, 2011

  Actual Average Record
Temperature  
Mean Temperature 50 °F -  
Max Temperature 64 °F 55 °F 75 °F (1973)
Min Temperature 37 °F 33 °F 19 °F (1970)
Degree Days  
Heating Degree Days 14    
Moisture  
Dew Point 41 °F    
Average Humidity 84    
Maximum Humidity 100    
Minimum Humidity 49    
Precipitation  
Precipitation 0.00 in - - ()
Sea Level Pressure  
Sea Level Pressure 30.27 in    
Wind  
Wind Speed 1 mph (SSW)    
Max Wind Speed 6 mph    
Max Gust Speed -    
Visibility 10 miles    
Events      
Averages and records for this station are not official NWS values.
T = Trace of Precipitation, MM = Missing Value Source: NWS Daily Summary

Daily Weather History Graph

Daily Weather History Graph

Search for Another Location

Airport or City:

Trip Planner

Search our weather history database for the weather conditions in past years. The results will help you decide how hot, cold, wet, or windy it might be!

Date:

Astronomy

Nov. 25, 2011 Rise Set
Actual Time 6:57 AM EST 4:44 PM EST
Civil Twilight 6:28 AM EST 5:13 PM EST
Nautical Twilight 5:55 AM EST 5:46 PM EST
Astronomical Twilight 5:23 AM EST 6:18 PM EST
Moon 7:22 AM EST 5:10 PM EST
Length of Visible Light 10h 45m
Length of Day
9h 47m
New Moon, 0% of the Moon is Illuminated
Nov 25
New Moon
Dec 2
First Quarter
Dec 10
Full
Dec 17
Last Quarter
Dec 24
New

Hourly Weather History & Observations

Time (EST) Temp. Windchill Dew Point Humidity Pressure Visibility Wind Dir Wind Speed Gust Speed Precip Events Conditions
12:09 AM 44.6 °F - 39.2 °F 81% 30.29 in 10.0 mi Calm Calm - N/A   Clear
12:27 AM 44.6 °F - 39.2 °F 81% 30.29 in 10.0 mi Calm Calm - N/A   Clear
12:30 AM 44.6 °F - 39.2 °F 81% 30.29 in 10.0 mi Calm Calm - N/A   Clear
12:48 AM 42.8 °F - 39.2 °F 87% 30.29 in 10.0 mi Calm Calm - N/A   Clear
1:06 AM 42.8 °F - 39.2 °F 87% 30.29 in 10.0 mi Calm Calm - N/A   Clear
1:27 AM 42.8 °F - 39.2 °F 87% 30.29 in 10.0 mi Calm Calm - N/A   Clear
1:45 AM 42.8 °F 41.1 °F 39.2 °F 87% 30.29 in 10.0 mi SW 3.5 mph - N/A   Clear
2:06 AM 41.0 °F - 39.2 °F 93% 30.30 in 10.0 mi Calm Calm - N/A   Clear
2:24 AM 42.8 °F - 39.2 °F 87% 30.30 in 10.0 mi Calm Calm - N/A   Clear
2:45 AM 42.8 °F 41.1 °F 39.2 °F 87% 30.30 in 10.0 mi SW 3.5 mph - N/A   Clear
3:03 AM 41.0 °F 38.0 °F 37.4 °F 87% 30.30 in 10.0 mi SSW 4.6 mph - N/A   Clear
3:24 AM 41.0 °F 38.0 °F 37.4 °F 87% 30.29 in 10.0 mi SSW 4.6 mph - N/A   Clear
3:42 AM 41.0 °F - 37.4 °F 87% 30.29 in 10.0 mi Calm Calm - N/A   Clear
4:00 AM 41.0 °F - 37.4 °F 87% 30.29 in 10.0 mi Calm Calm - N/A   Clear
4:21 AM 41.0 °F - 37.4 °F 87% 30.29 in 10.0 mi Calm Calm - N/A   Clear
4:39 AM 41.0 °F - 37.4 °F 87% 30.29 in 10.0 mi Calm Calm - N/A   Clear
5:00 AM 39.2 °F - 37.4 °F 93% 30.29 in 10.0 mi Calm Calm - N/A   Clear
5:09 AM 39.2 °F - 37.4 °F 93% 30.29 in 10.0 mi Calm Calm - N/A   Clear
5:52 AM 39.2 °F - 39.2 °F 100% 30.30 in 10.0 mi Calm Calm - N/A   Clear
6:53 AM 37.4 °F - 37.4 °F 100% 30.31 in 10.0 mi Calm Calm - N/A   Clear
7:53 AM 39.2 °F 35.9 °F 39.2 °F 100% 30.31 in 10.0 mi SW 4.6 mph - N/A   Clear
8:50 AM 50.0 °F - 46.4 °F 87% 30.32 in 10.0 mi SW 4.6 mph - N/A   Clear
9:48 AM 55.4 °F - 46.4 °F 72% 30.31 in 10.0 mi SW 4.6 mph - N/A   Clear
10:55 AM 59.0 °F - 46.4 °F 63% 30.30 in 10.0 mi SSW 4.6 mph - N/A   Clear
11:53 AM 62.6 °F - 46.4 °F 55% 30.28 in 10.0 mi SSW 5.8 mph - N/A   Clear
12:45 PM 53.6 °F - 44.6 °F 72% 30.26 in 10.0 mi SW 5.8 mph - N/A   Clear
1:50 PM 64.4 °F - 44.6 °F 49% 30.24 in 10.0 mi WSW 5.8 mph - N/A   Clear
2:50 PM 64.4 °F - 46.4 °F 52% 30.23 in 10.0 mi WSW 4.6 mph - N/A   Scattered Clouds
4:50 PM 57.2 °F - 46.4 °F 67% 30.23 in 10.0 mi Calm Calm - N/A   Scattered Clouds
5:50 PM 53.6 °F - 41.0 °F 62% 30.23 in 10.0 mi Calm Calm - N/A   Scattered Clouds
6:50 PM 50.0 °F - 41.0 °F 71% 30.24 in 10.0 mi Calm Calm - N/A   Scattered Clouds
7:50 PM 48.2 °F - 42.8 °F 82% 30.24 in 10.0 mi South 3.5 mph - N/A   Scattered Clouds
8:50 PM 44.6 °F 42.2 °F 41.0 °F 87% 30.24 in 10.0 mi South 4.6 mph - N/A   Scattered Clouds
9:24 PM 44.6 °F 43.1 °F 42.8 °F 93% 30.24 in 10.0 mi South 3.5 mph - N/A   Clear
9:42 PM 44.6 °F - 42.8 °F 93% 30.24 in 10.0 mi Calm Calm - N/A   Clear
10:03 PM 44.6 °F - 42.8 °F 93% 30.24 in 10.0 mi Calm Calm - N/A   Clear
10:21 PM 44.6 °F - 42.8 °F 93% 30.24 in 10.0 mi Calm Calm - N/A   Clear
10:42 PM 44.6 °F 42.2 °F 42.8 °F 93% 30.24 in 10.0 mi SSW 4.6 mph - N/A   Clear
11:00 PM 44.6 °F 42.2 °F 42.8 °F 93% 30.24 in 10.0 mi SSW 4.6 mph - N/A   Clear
11:18 PM 42.8 °F 40.1 °F 42.8 °F 100% 30.23 in 10.0 mi SSW 4.6 mph - N/A   Clear
11:39 PM 44.6 °F 43.1 °F 41.0 °F 87% 30.23 in 10.0 mi SSW 3.5 mph - N/A   Clear
11:57 PM 44.6 °F 43.1 °F 42.8 °F 93% 30.23 in 10.0 mi SSW 3.5 mph - N/A   Clear